Barksdale AFB, LA

9:08 PM CST on January 23, 2018 (GMT -0600)
Barksdale Air Force Base

Weather History for KBAD - March, 2014

Change the Weather History Date:

Monday, March 24, 2014

  Actual Average Record
Temperature  
Mean Temperature 50 °F -  
Max Temperature 66 °F 67 °F 82 °F (1997)
Min Temperature 37 °F 48 °F 32 °F (2006)
Degree Days  
Heating Degree Days 14    
Moisture  
Dew Point 33 °F    
Average Humidity 53    
Maximum Humidity 79    
Minimum Humidity 29    
Precipitation  
Precipitation 0.00 in - - ()
Sea Level Pressure  
Sea Level Pressure 30.16 in    
Wind  
Wind Speed 4 mph (NNE)    
Max Wind Speed 9 mph    
Max Gust Speed -    
Visibility 10 miles    
Events      
Averages and records for this station are not official NWS values.
T = Trace of Precipitation, MM = Missing Value Source: NWS Daily Summary

Daily Weather History Graph

Daily Weather History Graph

Search for Another Location

Airport or City:

Trip Planner

Search our weather history database for the weather conditions in past years. The results will help you decide how hot, cold, wet, or windy it might be!

Date:

Astronomy

Mar. 24, 2014 Rise Set
Actual Time 7:13 AM CDT 7:29 PM CDT
Civil Twilight 6:48 AM CDT 7:53 PM CDT
Nautical Twilight 6:19 AM CDT 8:22 PM CDT
Astronomical Twilight 5:50 AM CDT 8:51 PM CDT
Moon 2:25 AM CDT 1:13 PM CDT
Length of Visible Light 13h 05m
Length of Day
12h 15m
Last Quarter, 43% of the Moon is Illuminated
Mar 24
Last Quarter
Mar 30
New
Apr 7
First Quarter
Apr 15
Full
Apr 22
Last Quarter

Hourly Weather History & Observations

Time (CDT) Temp. Windchill Dew Point Humidity Pressure Visibility Wind Dir Wind Speed Gust Speed Precip Events Conditions
12:58 AM 43.9 °F - 34.5 °F 70% 30.27 in 10.0 mi NE 2.3 mph - N/A   Clear
1:58 AM 42.4 °F - 34.0 °F 72% 30.27 in 10.0 mi Calm Calm - N/A   Clear
2:58 AM 42.3 °F 39.4 °F 33.1 °F 70% 30.24 in 10.0 mi NNE 4.6 mph - N/A   Clear
3:58 AM 40.5 °F 38.4 °F 32.0 °F 72% 30.22 in 10.0 mi ENE 3.5 mph - N/A   Clear
4:58 AM 39.0 °F - 32.0 °F 76% 30.21 in 10.0 mi NNE 2.3 mph - N/A   Clear
5:58 AM 37.9 °F - 31.3 °F 77% 30.21 in 10.0 mi North 2.3 mph - N/A   Clear
6:58 AM 37.6 °F 34.0 °F 30.9 °F 77% 30.22 in 10.0 mi NE 4.6 mph - N/A   Clear
7:58 AM 37.8 °F 35.3 °F 31.8 °F 79% 30.23 in 10.0 mi NNE 3.5 mph - N/A   Clear
8:55 AM 44.6 °F 43.1 °F 32.0 °F 61% 30.23 in 10.0 mi East 3.5 mph - N/A   Clear
9:58 AM 48.7 °F - 32.7 °F 54% 30.23 in 10.0 mi East 4.6 mph - N/A   Clear
10:58 AM 53.4 °F - 32.4 °F 45% 30.22 in 10.0 mi NE 5.8 mph - N/A   Clear
11:58 AM 56.5 °F - 32.7 °F 41% 30.19 in 10.0 mi Variable 3.5 mph - N/A   Clear
12:58 PM 59.4 °F - 33.4 °F 38% 30.15 in 10.0 mi Variable 2.3 mph - N/A   Clear
1:58 PM 61.5 °F - 33.8 °F 35% 30.12 in 10.0 mi North 6.9 mph - N/A   Clear
2:58 PM 64.2 °F - 34.3 °F 33% 30.08 in 10.0 mi NE 5.8 mph - N/A   Clear
3:58 PM 64.2 °F - 32.5 °F 31% 30.04 in 10.0 mi North 5.8 mph - N/A   Clear
4:58 PM 64.8 °F - 33.3 °F 31% 30.03 in 10.0 mi Variable 2.3 mph - N/A   Clear
5:58 PM 64.4 °F - 31.3 °F 29% 30.03 in 10.0 mi NNW 4.6 mph - N/A   Clear
6:58 PM 62.2 °F - 32.7 °F 33% 30.05 in 10.0 mi NW 5.8 mph - N/A   Clear
7:58 PM 56.5 °F - 36.0 °F 46% 30.08 in 10.0 mi North 9.2 mph - N/A   Clear
8:58 PM 54.1 °F - 34.9 °F 48% 30.09 in 10.0 mi North 6.9 mph - N/A   Clear
9:58 PM 53.1 °F - 35.1 °F 50% 30.12 in 10.0 mi North 2.3 mph - N/A   Clear
10:58 PM 49.6 °F - 35.2 °F 58% 30.14 in 10.0 mi NNE 5.8 mph - N/A   Clear
11:58 PM 49.3 °F - 34.5 °F 57% 30.15 in 10.0 mi NNE 3.5 mph - N/A   Clear